User: anonymous   Login
Location: Stonelick Lake State Park
(39.2170°N, 84.0850°W)
Time: 02:08:05
(UTC-05:00)
Language:

Abrixas rocket - Orbit

View from above orbital plane
View from above orbital plane
View from above satellite
View from above satellite

Ground track
Ground track

The orbit data is extracted from the following two-line orbital elements,

1 25723U 99022C   17351.80958822  .00007680  00000-0  10961-3 0  9991
2 25723  48.4157 266.3117 0009664 200.6517 159.4040 15.57169797 35088
Epoch (UTC): 17 December 2017 19:25:48
Eccentricity: 0.0009664
inclination: 48.4157°
perigee height: 389 km
apogee height: 402 km
right ascension of ascending node: 266.3117°
argument of perigee: 200.6517°
revolutions per day: 15.57169797
mean anomaly at epoch: 159.4040°
orbit number at epoch: 3508

The dashed part of the orbit path shows where the satellite is in the earth's shadow,  

DLR